| time (UTC) | temp C | wind direction | speed KPH | gust KPH | rain 1hr cm | rain 24hr cm | rain mn cm | humidity % | barometer mb |
| 20260831214528 | 22 | 28 | 6.4 | 17.7 | 0.00 | 0.00 | 0.00 | 52 | 1006.1 |
| 20260831214027 | 22 | 345 | 9.7 | 17.7 | 0.00 | 0.00 | 0.00 | 52 | 1006.1 |
| 20260831213530 | 22 | 311 | 12.9 | 19.3 | 0.00 | 0.00 | 0.00 | 52 | 1006.1 |
| 20260831213026 | 22 | 299 | 14.5 | 19.3 | 0.00 | 0.00 | 0.00 | 51 | 1006.1 |
| 20260831212523 | 22 | 312 | 6.4 | 14.5 | 0.00 | 0.00 | 0.00 | 51 | 1006.1 |
| 20260831212022 | 22 | 319 | 6.4 | 14.5 | 0.00 | 0.00 | 0.00 | 51 | 1006.1 |
| 20260831211521 | 22 | 281 | 6.4 | 16.1 | 0.00 | 0.00 | 0.00 | 52 | 1006.0 |
| 20260831211020 | 23 | 258 | 8.0 | 29.0 | 0.00 | 0.00 | 0.00 | 52 | 1006.0 |
| 20260831210517 | 24 | 286 | 20.9 | 29.0 | 0.00 | 0.00 | 0.00 | 50 | 1005.9 |
| 20260831210016 | 25 | 105 | 0.0 | 16.1 | 0.00 | 0.00 | 0.00 | 45 | 1006.0 |
| 20260831205514 | 26 | 360 | 8.0 | 20.9 | 0.00 | 0.00 | 0.00 | 44 | 1005.9 |
| 20260831205013 | 26 | 98 | 9.7 | 20.9 | 0.00 | 0.00 | 0.00 | 41 | 1005.7 |
| 20260831204511 | 26 | 119 | 9.7 | 20.9 | 0.00 | 0.00 | 0.00 | 40 | 1005.7 |
| 20260831204013 | 26 | 117 | 6.4 | 20.9 | 0.00 | 0.00 | 0.00 | 42 | 1005.7 |
| 20260831203509 | 26 | 138 | 9.7 | 19.3 | 0.00 | 0.00 | 0.00 | 42 | 1005.6 |
| 20260831203006 | 27 | 154 | 14.5 | 24.1 | 0.00 | 0.00 | 0.00 | 41 | 1005.7 |
| 20260831202505 | 27 | 99 | 14.5 | 25.7 | 0.00 | 0.00 | 0.00 | 41 | 1005.9 |
| 20260831202004 | 27 | 118 | 17.7 | 25.7 | 0.00 | 0.00 | 0.00 | 40 | 1005.9 |
| 20260831201507 | 27 | 139 | 9.7 | 17.7 | 0.00 | 0.00 | 0.00 | 40 | 1006.0 |
| 20260831201002 | 27 | 130 | 11.3 | 19.3 | 0.00 | 0.00 | 0.00 | 42 | 1006.0 |
| 20260831200600 | 27 | 130 | 6.4 | 24.1 | 0.00 | 0.00 | 0.00 | 42 | 1006.0 |
| 20260831200139 | 26 | 169 | 11.3 | 24.1 | 0.00 | 0.00 | 0.00 | 42 | 1006.1 |
| 20260831195557 | 27 | 110 | 6.4 | 20.9 | 0.00 | 0.00 | 0.00 | 40 | 1006.2 |
| 20260831195054 | 27 | 74 | 12.9 | 20.9 | 0.00 | 0.00 | 0.00 | 41 | 1006.3 |
| 20260831194559 | 27 | 149 | 12.9 | 25.7 | 0.00 | 0.00 | 0.00 | 41 | 1006.5 |
| 20260831194052 | 27 | 117 | 14.5 | 25.7 | 0.00 | 0.00 | 0.00 | 41 | 1006.6 |
| 20260831193550 | 27 | 101 | 12.9 | 20.9 | 0.00 | 0.00 | 0.00 | 40 | 1006.8 |
| 20260831193049 | 27 | 141 | 14.5 | 22.5 | 0.00 | 0.00 | 0.00 | 41 | 1006.9 |
| 20260831192549 | 27 | 147 | 16.1 | 22.5 | 0.00 | 0.00 | 0.00 | 42 | 1007.0 |
| 20260831192045 | 27 | 165 | 9.7 | 24.1 | 0.00 | 0.00 | 0.00 | 44 | 1007.0 |
| 20260831191546 | 26 | 181 | 14.5 | 20.9 | 0.00 | 0.00 | 0.00 | 45 | 1007.2 |
| 20260831191043 | 26 | 174 | 9.7 | 20.9 | 0.00 | 0.00 | 0.00 | 45 | 1007.1 |
| 20260831190541 | 26 | 144 | 12.9 | 20.9 | 0.00 | 0.00 | 0.00 | 47 | 1007.3 |
| 20260831190042 | 26 | 147 | 11.3 | 19.3 | 0.00 | 0.00 | 0.00 | 48 | 1007.4 |
| 20260831185538 | 26 | 156 | 12.9 | 19.3 | 0.00 | 0.00 | 0.00 | 48 | 1007.5 |
| 20260831185036 | 26 | 172 | 11.3 | 22.5 | 0.00 | 0.00 | 0.00 | 48 | 1007.6 |
| 20260831184535 | 25 | 172 | 11.3 | 19.3 | 0.00 | 0.00 | 0.00 | 49 | 1007.8 |
| 20260831184033 | 25 | 137 | 12.9 | 19.3 | 0.00 | 0.00 | 0.00 | 49 | 1008.0 |
| 20260831183533 | 25 | 175 | 9.7 | 22.5 | 0.00 | 0.00 | 0.00 | 49 | 1008.1 |
| 20260831183031 | 25 | 181 | 12.9 | 22.5 | 0.00 | 0.00 | 0.00 | 48 | 1008.3 |
| 20260831182530 | 25 | 145 | 11.3 | 17.7 | 0.00 | 0.00 | 0.00 | 49 | 1008.3 |
| 20260831182028 | 25 | 178 | 11.3 | 19.3 | 0.00 | 0.00 | 0.00 | 49 | 1008.5 |
| 20260831181530 | 25 | 145 | 9.7 | 20.9 | 0.00 | 0.00 | 0.00 | 50 | 1008.6 |
| 20260831181025 | 25 | 180 | 16.1 | 24.1 | 0.00 | 0.00 | 0.00 | 49 | 1008.8 |
| 20260831180524 | 25 | 145 | 12.9 | 27.4 | 0.00 | 0.00 | 0.00 | 49 | 1008.9 |
| 20260831180022 | 24 | 168 | 14.5 | 27.4 | 0.00 | 0.00 | 0.00 | 50 | 1009.0 |
| 20260831175520 | 24 | 168 | 14.5 | 22.5 | 0.00 | 0.00 | 0.00 | 50 | 1009.2 |
| 20260831175019 | 23 | 174 | 14.5 | 24.1 | 0.00 | 0.00 | 0.00 | 50 | 1009.3 |
| 20260831174517 | 23 | 195 | 16.1 | 25.7 | 0.00 | 0.00 | 0.00 | 51 | 1009.3 |
| 20260831174017 | 23 | 165 | 16.1 | 27.4 | 0.00 | 0.00 | 0.00 | 51 | 1009.4 |
| 20260831173515 | 23 | 140 | 16.1 | 27.4 | 0.00 | 0.00 | 0.00 | 51 | 1009.5 |
| 20260831173013 | 23 | 150 | 16.1 | 30.6 | 0.00 | 0.00 | 0.00 | 50 | 1009.5 |
| 20260831172511 | 23 | 138 | 16.1 | 30.6 | 0.00 | 0.00 | 0.00 | 50 | 1009.6 |
| 20260831172011 | 23 | 150 | 17.7 | 27.4 | 0.00 | 0.00 | 0.00 | 50 | 1009.7 |
| 20260831171509 | 23 | 149 | 12.9 | 20.9 | 0.00 | 0.00 | 0.00 | 49 | 1009.7 |
| 20260831171008 | 22 | 136 | 14.5 | 19.3 | 0.00 | 0.00 | 0.00 | 49 | 1009.9 |
| 20260831170507 | 22 | 172 | 14.5 | 27.4 | 0.00 | 0.00 | 0.00 | 47 | 1010.0 |
| 20260831170008 | 22 | 172 | 17.7 | 27.4 | 0.00 | 0.00 | 0.00 | 48 | 1010.0 |
| 20260831165503 | 22 | 164 | 14.5 | 24.1 | 0.00 | 0.00 | 0.00 | 47 | 1010.1 |
| 20260831165001 | 22 | 180 | 12.9 | 22.5 | 0.00 | 0.00 | 0.00 | 45 | 1010.1 |
| 20260831164601 | 21 | 147 | 14.5 | 22.5 | 0.00 | 0.00 | 0.00 | 43 | 1010.2 |
| 20260831164059 | 22 | 132 | 16.1 | 22.5 | 0.00 | 0.00 | 0.00 | 41 | 1010.2 |
| 20260831163600 | 22 | 139 | 14.5 | 17.7 | 0.00 | 0.00 | 0.00 | 33 | 1010.3 |
| 20260831163056 | 21 | 137 | 12.9 | 17.7 | 0.00 | 0.00 | 0.00 | 14 | 1010.3 |
| 20260831162555 | 21 | 172 | 11.3 | 19.3 | 0.00 | 0.00 | 0.00 | 1 | 1010.3 |
| 20260831162055 | 20 | 155 | 11.3 | 19.3 | 0.00 | 0.00 | 0.00 | 1 | 1010.3 |
| 20260831161552 | 20 | 131 | 11.3 | 19.3 | 0.00 | 0.00 | 0.00 | 1 | 1010.4 |
| 20260831161050 | 19 | 139 | 8.0 | 12.9 | 0.00 | 0.00 | 0.00 | 1 | 1010.2 |
| 20260831160549 | 19 | 157 | 9.7 | 16.1 | 0.00 | 0.00 | 0.00 | 1 | 1010.3 |
| 20260831160047 | 18 | 146 | 11.3 | 17.7 | 0.00 | 0.00 | 0.00 | 1 | 1010.5 |
| 20260831155546 | 18 | 179 | 8.0 | 16.1 | 0.00 | 0.00 | 0.00 | 1 | 1010.4 |
| 20260831155044 | 16 | 197 | 8.0 | 12.9 | 0.00 | 0.00 | 0.00 | 1 | 1010.5 |
| 20260831154545 | 15 | 189 | 1.6 | 6.4 | 0.00 | 0.00 | 0.00 | 1 | 1010.5 |
| 20260831154046 | 15 | 56 | 0.0 | 0.0 | 0.00 | 0.00 | 0.00 | 1 | 1010.5 |
| 20260831153541 | 15 | 56 | 0.0 | 0.0 | 0.00 | 0.00 | 0.00 | 1 | 1010.6 |
| 20260831153039 | 15 | 56 | 0.0 | 0.0 | 0.00 | 0.00 | 0.00 | 1 | 1010.6 |
| 20260831152538 | 15 | 56 | 0.0 | 0.0 | 0.00 | 0.00 | 0.00 | 1 | 1010.7 |
| 20260831152035 | 14 | 56 | 0.0 | 0.0 | 0.00 | 0.00 | 0.00 | 1 | 1010.6 |
| 20260831151534 | 13 | 56 | 0.0 | 0.0 | 0.00 | 0.00 | 0.00 | 1 | 1010.6 |
| 20260831151032 | 13 | 56 | 0.0 | 3.2 | 0.00 | 0.00 | 0.00 | 1 | 1010.7 |
| 20260831150531 | 13 | 56 | 0.0 | 8.0 | 0.00 | 0.00 | 0.00 | 1 | 1010.7 |
| 20260831150029 | 13 | 56 | 0.0 | 8.0 | 0.00 | 0.00 | 0.00 | 1 | 1010.7 |
| 20260831145527 | 12 | 66 | 0.0 | 6.4 | 0.00 | 0.00 | 0.00 | 1 | 1010.8 |
| 20260831145026 | 12 | 47 | 1.6 | 6.4 | 0.00 | 0.00 | 0.00 | 1 | 1010.8 |
| 20260831144525 | 12 | 95 | 1.6 | 9.7 | 0.00 | 0.00 | 0.00 | 1 | 1010.7 |
| 20260831144025 | 12 | 95 | 1.6 | 9.7 | 0.00 | 0.00 | 0.00 | 1 | 1010.7 |
| 20260831143523 | 12 | 110 | 4.8 | 9.7 | 0.00 | 0.00 | 0.00 | 1 | 1010.7 |
| 20260831143022 | 12 | 114 | 1.6 | 6.4 | 0.00 | 0.00 | 0.00 | 1 | 1010.7 |
| 20260831142520 | 11 | 126 | 0.0 | 6.4 | 0.00 | 0.00 | 0.00 | 1 | 1010.7 |
| 20260831142019 | 11 | 184 | 0.0 | 4.8 | 0.00 | 0.00 | 0.00 | 1 | 1010.7 |
| 20260831141517 | 11 | 184 | 0.0 | 4.8 | 0.00 | 0.00 | 0.00 | 1 | 1010.6 |
| 20260831141015 | 10 | 184 | 0.0 | 1.6 | 0.00 | 0.00 | 0.00 | 1 | 1010.6 |
| 20260831140516 | 10 | 284 | 0.0 | 0.0 | 0.00 | 0.00 | 0.00 | 1 | 1010.6 |
| 20260831140029 | 10 | 284 | 0.0 | 0.0 | 0.00 | 0.00 | 0.00 | 1 | 1010.6 |
| 20260831135510 | 10 | 284 | 0.0 | 3.2 | 0.00 | 0.03 | 0.00 | 1 | 1010.4 |
| 20260831135009 | 10 | 284 | 0.0 | 3.2 | 0.00 | 0.03 | 0.00 | 1 | 1010.4 |
| 20260831134508 | 9 | 284 | 0.0 | 0.0 | 0.00 | 0.03 | 0.00 | 1 | 1010.4 |
| 20260831134007 | 9 | 284 | 0.0 | 1.6 | 0.00 | 0.03 | 0.00 | 1 | 1010.3 |
| 20260831133504 | 8 | 284 | 0.0 | 6.4 | 0.00 | 0.03 | 0.00 | 1 | 1010.2 |
| 20260831133003 | 8 | 284 | 1.6 | 6.4 | 0.00 | 0.03 | 0.00 | 1 | 1010.2 |
| 20260831132502 | 8 | 284 | 0.0 | 4.8 | 0.00 | 0.03 | 0.00 | 1 | 1010.2 |
| 20260831132002 | 8 | 284 | 0.0 | 0.0 | 0.00 | 0.03 | 0.00 | 1 | 1010.1 |
| 20260831131602 | 8 | 284 | 0.0 | 0.0 | 0.00 | 0.03 | 0.00 | 1 | 1010.1 |
| 20260831131058 | 9 | 284 | 0.0 | 0.0 | 0.00 | 0.03 | 0.00 | 1 | 1010.1 |
| 20260831130557 | 8 | 284 | 0.0 | 0.0 | 0.00 | 0.03 | 0.00 | 1 | 1010.1 |
| 20260831130056 | 8 | 284 | 0.0 | 0.0 | 0.00 | 0.03 | 0.00 | 1 | 1009.9 |
| 20260831125554 | 9 | 284 | 0.0 | 0.0 | 0.00 | 0.03 | 0.00 | 1 | 1009.8 |
| 20260831125052 | 9 | 284 | 0.0 | 0.0 | 0.00 | 0.03 | 0.00 | 1 | 1009.8 |
| 20260831124550 | 9 | 284 | 0.0 | 0.0 | 0.00 | 0.03 | 0.00 | 1 | 1009.7 |
| 20260831124048 | 8 | 284 | 0.0 | 0.0 | 0.00 | 0.03 | 0.00 | 1 | 1009.6 |
| 20260831123547 | 8 | 284 | 0.0 | 0.0 | 0.00 | 0.03 | 0.00 | 1 | 1009.6 |
| 20260831123045 | 8 | 284 | 0.0 | 4.8 | 0.00 | 0.03 | 0.00 | 1 | 1009.5 |
| 20260831122545 | 8 | 284 | 0.0 | 4.8 | 0.00 | 0.03 | 0.00 | 1 | 1009.7 |
| 20260831122046 | 9 | 319 | 0.0 | 0.0 | 0.00 | 0.03 | 0.00 | 1 | 1009.6 |
| 20260831121546 | 10 | 333 | 0.0 | 3.2 | 0.00 | 0.03 | 0.00 | 1 | 1009.7 |
| 20260831121041 | 10 | 333 | 1.6 | 3.2 | 0.00 | 0.03 | 0.00 | 1 | 1009.8 |
| 20260831120539 | 10 | 30 | 0.0 | 4.8 | 0.00 | 0.03 | 0.00 | 1 | 1009.8 |
| 20260831120038 | 10 | 30 | 0.0 | 8.0 | 0.00 | 0.03 | 0.00 | 1 | 1009.8 |
| 20260831115536 | 10 | 8 | 4.8 | 8.0 | 0.00 | 0.03 | 0.00 | 1 | 1009.9 |
| 20260831115034 | 10 | 86 | 0.0 | 3.2 | 0.00 | 0.03 | 0.00 | 1 | 1009.8 |
| 20260831114533 | 10 | 204 | 0.0 | 3.2 | 0.00 | 0.03 | 0.00 | 1 | 1009.9 |
| 20260831114031 | 10 | 204 | 0.0 | 3.2 | 0.00 | 0.03 | 0.00 | 1 | 1010.0 |
| 20260831113530 | 9 | 204 | 0.0 | 6.4 | 0.00 | 0.03 | 0.00 | 1 | 1010.0 |
| 20260831113029 | 8 | 204 | 0.0 | 8.0 | 0.00 | 0.03 | 0.00 | 1 | 1010.1 |
| 20260831112527 | 8 | 204 | 3.2 | 9.7 | 0.00 | 0.03 | 0.00 | 1 | 1010.0 |
| 20260831112025 | 8 | 204 | 6.4 | 9.7 | 0.00 | 0.03 | 0.00 | 1 | 1009.9 |
| 20260831111524 | 8 | 192 | 8.0 | 9.7 | 0.00 | 0.03 | 0.00 | 1 | 1009.9 |
| 20260831111022 | 8 | 172 | 4.8 | 6.4 | 0.00 | 0.03 | 0.00 | 1 | 1010.0 |
| 20260831110524 | 8 | 245 | 3.2 | 4.8 | 0.00 | 0.03 | 0.00 | 1 | 1009.9 |
| 20260831110020 | 10 | 245 | 0.0 | 0.0 | 0.00 | 0.03 | 0.00 | 1 | 1009.9 |
| 20260831105522 | 10 | 245 | 0.0 | 0.0 | 0.00 | 0.03 | 0.00 | 1 | 1009.8 |
| 20260831105017 | 10 | 245 | 0.0 | 0.0 | 0.00 | 0.03 | 0.00 | 1 | 1009.7 |
| 20260831104519 | 10 | 245 | 0.0 | 0.0 | 0.00 | 0.03 | 0.00 | 1 | 1009.7 |
| 20260831104014 | 10 | 245 | 0.0 | 0.0 | 0.00 | 0.03 | 0.00 | 1 | 1009.7 |
| 20260831103512 | 11 | 245 | 0.0 | 0.0 | 0.00 | 0.03 | 0.00 | 1 | 1009.8 |
| 20260831103010 | 11 | 245 | 0.0 | 0.0 | 0.00 | 0.03 | 0.00 | 1 | 1009.7 |
| 20260831102509 | 11 | 245 | 0.0 | 0.0 | 0.00 | 0.03 | 0.00 | 1 | 1009.8 |
| 20260831102008 | 11 | 245 | 0.0 | 0.0 | 0.00 | 0.03 | 0.00 | 1 | 1009.8 |
| 20260831101512 | 11 | 245 | 0.0 | 0.0 | 0.00 | 0.03 | 0.00 | 1 | 1009.7 |
| 20260831101005 | 11 | 245 | 0.0 | 4.8 | 0.00 | 0.03 | 0.00 | 1 | 1009.6 |
| 20260831100506 | 10 | 245 | 0.0 | 6.4 | 0.00 | 0.03 | 0.00 | 1 | 1009.6 |
| 20260831100002 | 10 | 245 | 0.0 | 4.8 | 0.00 | 0.03 | 0.00 | 1 | 1009.5 |
| 20260831095501 | 11 | 245 | 0.0 | 0.0 | 0.00 | 0.03 | 0.00 | 1 | 1009.4 |
| 20260831095100 | 11 | 245 | 0.0 | 0.0 | 0.00 | 0.03 | 0.00 | 1 | 1009.4 |
| 20260831094558 | 11 | 245 | 0.0 | 0.0 | 0.00 | 0.03 | 0.00 | 1 | 1009.4 |
| 20260831094057 | 11 | 245 | 0.0 | 0.0 | 0.00 | 0.03 | 0.00 | 1 | 1009.4 |
| 20260831093558 | 11 | 245 | 0.0 | 0.0 | 0.00 | 0.03 | 0.00 | 1 | 1009.3 |
| 20260831093057 | 11 | 245 | 0.0 | 0.0 | 0.00 | 0.03 | 0.00 | 1 | 1009.2 |
| 20260831092551 | 10 | 245 | 0.0 | 0.0 | 0.00 | 0.03 | 0.00 | 1 | 1009.2 |
| 20260831092052 | 10 | 245 | 0.0 | 0.0 | 0.00 | 0.03 | 0.00 | 1 | 1009.2 |
| 20260831091548 | 9 | 245 | 0.0 | 3.2 | 0.00 | 0.03 | 0.00 | 1 | 1009.3 |
| 20260831091050 | 9 | 245 | 0.0 | 6.4 | 0.00 | 0.03 | 0.00 | 1 | 1009.1 |
| 20260831090545 | 10 | 245 | 3.2 | 6.4 | 0.00 | 0.03 | 0.00 | 1 | 1009.2 |
| 20260831090056 | 11 | 245 | 0.0 | 0.0 | 0.00 | 0.03 | 0.00 | 1 | 1009.1 |
| 20260831085543 | 11 | 245 | 0.0 | 0.0 | 0.00 | 0.03 | 0.00 | 1 | 1009.1 |
| 20260831085041 | 11 | 245 | 0.0 | 0.0 | 0.00 | 0.03 | 0.00 | 1 | 1009.1 |
| 20260831084547 | 11 | 245 | 0.0 | 0.0 | 0.00 | 0.03 | 0.00 | 1 | 1009.2 |
| 20260831084037 | 11 | 245 | 0.0 | 0.0 | 0.00 | 0.03 | 0.00 | 1 | 1009.2 |
| 20260831083536 | 11 | 245 | 0.0 | 0.0 | 0.00 | 0.03 | 0.00 | 1 | 1009.2 |
| 20260831083035 | 11 | 245 | 0.0 | 0.0 | 0.00 | 0.03 | 0.00 | 1 | 1009.3 |
| 20260831082533 | 11 | 245 | 0.0 | 0.0 | 0.00 | 0.03 | 0.00 | 1 | 1009.3 |
| 20260831082031 | 11 | 245 | 0.0 | 1.6 | 0.00 | 0.03 | 0.00 | 1 | 1009.3 |
| 20260831081530 | 11 | 245 | 0.0 | 1.6 | 0.00 | 0.03 | 0.00 | 1 | 1009.4 |
| 20260831081029 | 12 | 245 | 0.0 | 0.0 | 0.00 | 0.03 | 0.00 | 1 | 1009.5 |
| 20260831080508 | 13 | 245 | 0.0 | 0.0 | 0.00 | 0.03 | 0.00 | 1 | 1009.4 |
| 20260831080032 | 13 | 245 | 0.0 | 0.0 | 0.00 | 0.03 | 0.00 | 1 | 1009.5 |
| 20260831075524 | 13 | 245 | 0.0 | 0.0 | 0.00 | 0.05 | 0.00 | 1 | 1009.5 |
| 20260831075022 | 13 | 245 | 0.0 | 0.0 | 0.00 | 0.05 | 0.00 | 1 | 1009.5 |
| 20260831074525 | 12 | 245 | 0.0 | 0.0 | 0.00 | 0.05 | 0.00 | 1 | 1009.5 |
| 20260831074022 | 12 | 245 | 0.0 | 0.0 | 0.00 | 0.05 | 0.00 | 1 | 1009.6 |
| 20260831073522 | 12 | 245 | 0.0 | 0.0 | 0.00 | 0.05 | 0.00 | 1 | 1009.6 |
| 20260831073017 | 11 | 245 | 0.0 | 4.8 | 0.00 | 0.05 | 0.00 | 1 | 1009.6 |
| 20260831072516 | 11 | 245 | 0.0 | 6.4 | 0.00 | 0.05 | 0.00 | 1 | 1009.6 |
| 20260831072014 | 11 | 245 | 4.8 | 6.4 | 0.00 | 0.05 | 0.00 | 1 | 1009.5 |
| 20260831071513 | 11 | 285 | 0.0 | 0.0 | 0.00 | 0.05 | 0.00 | 1 | 1009.6 |
| 20260831071011 | 12 | 284 | 0.0 | 0.0 | 0.00 | 0.05 | 0.00 | 1 | 1009.6 |
| 20260831070511 | 12 | 285 | 0.0 | 0.0 | 0.00 | 0.05 | 0.00 | 1 | 1009.6 |
| 20260831070009 | 12 | 284 | 0.0 | 0.0 | 0.00 | 0.05 | 0.00 | 1 | 1009.6 |
| 20260831065510 | 12 | 284 | 0.0 | 0.0 | 0.00 | 0.05 | 0.00 | 1 | 1009.6 |
| 20260831065005 | 12 | 285 | 0.0 | 4.8 | 0.00 | 0.05 | 0.00 | 1 | 1009.6 |
| 20260831064504 | 12 | 285 | 1.6 | 4.8 | 0.00 | 0.05 | 0.00 | 1 | 1009.6 |
| 20260831064002 | 12 | 285 | 0.0 | 4.8 | 0.00 | 0.05 | 0.00 | 1 | 1009.4 |
| 20260831063501 | 13 | 150 | 0.0 | 0.0 | 0.00 | 0.05 | 0.00 | 1 | 1009.4 |
| 20260831063059 | 13 | 150 | 0.0 | 0.0 | 0.00 | 0.05 | 0.00 | 1 | 1009.3 |
| 20260831062558 | 13 | 150 | 0.0 | 0.0 | 0.00 | 0.05 | 0.00 | 1 | 1009.3 |
| 20260831062057 | 13 | 150 | 0.0 | 0.0 | 0.00 | 0.05 | 0.00 | 1 | 1009.3 |
| 20260831061605 | 12 | 150 | 0.0 | 0.0 | 0.00 | 0.05 | 0.00 | 1 | 1009.3 |
| 20260831061054 | 13 | 150 | 0.0 | 0.0 | 0.00 | 0.05 | 0.00 | 1 | 1009.4 |
| 20260831060553 | 13 | 150 | 0.0 | 4.8 | 0.00 | 0.05 | 0.00 | 1 | 1009.4 |
| 20260831060058 | 13 | 150 | 3.2 | 8.0 | 0.00 | 0.05 | 0.00 | 1 | 1009.3 |
| 20260831055549 | 13 | 150 | 6.4 | 8.0 | 0.00 | 0.05 | 0.05 | 1 | 1009.3 |
| 20260831055048 | 13 | 150 | 0.0 | 4.8 | 0.00 | 0.05 | 0.05 | 1 | 1009.2 |
| 20260831054548 | 13 | 150 | 3.2 | 6.4 | 0.00 | 0.05 | 0.05 | 1 | 1009.2 |
| 20260831054046 | 13 | 150 | 1.6 | 11.3 | 0.00 | 0.05 | 0.05 | 1 | 1009.3 |
| 20260831053545 | 13 | 150 | 8.0 | 12.9 | 0.00 | 0.05 | 0.05 | 1 | 1009.3 |
| 20260831053058 | 13 | 153 | 6.4 | 14.5 | 0.00 | 0.05 | 0.05 | 1 | 1009.2 |
| 20260831052542 | 13 | 137 | 9.7 | 14.5 | 0.00 | 0.05 | 0.05 | 1 | 1009.4 |
| 20260831052044 | 13 | 182 | 4.8 | 8.0 | 0.00 | 0.05 | 0.05 | 1 | 1009.1 |
| 20260831051543 | 13 | 182 | 0.0 | 1.6 | 0.00 | 0.05 | 0.05 | 1 | 1009.1 |
| 20260831051037 | 13 | 182 | 0.0 | 0.0 | 0.00 | 0.05 | 0.05 | 1 | 1009.1 |
| 20260831050536 | 13 | 182 | 0.0 | 4.8 | 0.00 | 0.05 | 0.05 | 1 | 1009.0 |
| 20260831050042 | 13 | 182 | 0.0 | 8.0 | 0.00 | 0.05 | 0.05 | 1 | 1008.9 |
| 20260831045535 | 13 | 182 | 4.8 | 8.0 | 0.00 | 0.20 | 0.05 | 1 | 1008.9 |
| 20260831045032 | 14 | 182 | 4.8 | 8.0 | 0.00 | 0.20 | 0.05 | 1 | 1008.7 |
| 20260831044530 | 15 | 182 | 4.8 | 8.0 | 0.00 | 0.20 | 0.05 | 1 | 1008.7 |
| 20260831044028 | 15 | 182 | 0.0 | 0.0 | 0.00 | 0.20 | 0.05 | 1 | 1008.7 |
| 20260831043527 | 16 | 182 | 0.0 | 1.6 | 0.00 | 0.20 | 0.05 | 1 | 1008.6 |
| 20260831043026 | 16 | 182 | 0.0 | 4.8 | 0.00 | 0.20 | 0.05 | 1 | 1008.7 |
| 20260831042526 | 16 | 182 | 0.0 | 4.8 | 0.00 | 0.20 | 0.05 | 1 | 1008.7 |
| 20260831042023 | 16 | 182 | 0.0 | 6.4 | 0.00 | 0.20 | 0.05 | 1 | 1008.5 |
| 20260831041522 | 16 | 182 | 1.6 | 6.4 | 0.00 | 0.20 | 0.05 | 1 | 1008.6 |
| 20260831041022 | 17 | 182 | 0.0 | 0.0 | 0.00 | 0.20 | 0.05 | 1 | 1008.4 |
| 20260831040518 | 17 | 182 | 0.0 | 0.0 | 0.00 | 0.20 | 0.05 | 1 | 1008.4 |
| 20260831040018 | 17 | 182 | 0.0 | 6.4 | 0.00 | 0.20 | 0.05 | 1 | 1008.3 |
| 20260831035516 | 17 | 182 | 3.2 | 6.4 | 0.00 | 0.28 | 0.05 | 1 | 1008.4 |
| 20260831035014 | 17 | 182 | 4.8 | 6.4 | 0.00 | 0.28 | 0.05 | 1 | 1008.3 |
| 20260831034514 | 17 | 182 | 3.2 | 6.4 | 0.00 | 0.28 | 0.05 | 1 | 1008.2 |
| 20260831034014 | 17 | 182 | 0.0 | 6.4 | 0.00 | 0.28 | 0.05 | 1 | 1008.2 |
| 20260831033514 | 17 | 182 | 0.0 | 6.4 | 0.00 | 0.28 | 0.05 | 1 | 1008.3 |
| 20260831033024 | 17 | 182 | 0.0 | 1.6 | 0.00 | 0.28 | 0.05 | 1 | 1008.2 |
| 20260831032514 | 17 | 182 | 0.0 | 0.0 | 0.00 | 0.28 | 0.05 | 1 | 1008.1 |
| 20260831032013 | 17 | 182 | 0.0 | 8.0 | 0.00 | 0.28 | 0.05 | 1 | 1008.0 |
| 20260831031515 | 17 | 182 | 3.2 | 16.1 | 0.00 | 0.28 | 0.05 | 1 | 1008.0 |
| 20260831031013 | 17 | 147 | 11.3 | 16.1 | 0.00 | 0.28 | 0.05 | 1 | 1007.9 |
| 20260831030511 | 17 | 288 | 0.0 | 3.2 | 0.00 | 0.28 | 0.05 | 1 | 1007.7 |
| 20260831030008 | 17 | 288 | 0.0 | 8.0 | 0.00 | 0.28 | 0.05 | 1 | 1007.5 |
| 20260831025508 | 17 | 288 | 4.8 | 8.0 | 0.00 | 0.28 | 0.05 | 1 | 1007.5 |
| 20260831025007 | 17 | 288 | 0.0 | 6.4 | 0.00 | 0.28 | 0.05 | 1 | 1007.3 |
| 20260831024507 | 17 | 288 | 0.0 | 4.8 | 0.00 | 0.28 | 0.05 | 1 | 1007.2 |
| 20260831024006 | 17 | 288 | 0.0 | 4.8 | 0.00 | 0.28 | 0.05 | 1 | 1007.1 |
| 20260831023504 | 18 | 288 | 3.2 | 6.4 | 0.00 | 0.28 | 0.05 | 1 | 1006.9 |
| 20260831023002 | 18 | 288 | 4.8 | 8.0 | 0.00 | 0.28 | 0.05 | 1 | 1006.8 |
| 20260831022502 | 18 | 288 | 4.8 | 8.0 | 0.00 | 0.28 | 0.05 | 3 | 1006.7 |
| 20260831022059 | 18 | 288 | 3.2 | 6.4 | 0.00 | 0.28 | 0.05 | 9 | 1006.7 |
| 20260831021559 | 18 | 303 | 4.8 | 9.7 | 0.00 | 0.28 | 0.05 | 19 | 1006.6 |
| 20260831021057 | 19 | 303 | 4.8 | 12.9 | 0.00 | 0.28 | 0.05 | 27 | 1006.4 |
| 20260831020556 | 20 | 303 | 9.7 | 12.9 | 0.00 | 0.28 | 0.05 | 35 | 1006.3 |
| 20260831020108 | 20 | 293 | 8.0 | 12.9 | 0.00 | 0.28 | 0.05 | 43 | 1006.2 |
| 20260831015552 | 21 | 304 | 6.4 | 12.9 | 0.00 | 0.30 | 0.05 | 46 | 1006.2 |
| 20260831015050 | 21 | 329 | 6.4 | 12.9 | 0.00 | 0.30 | 0.05 | 48 | 1006.1 |
| 20260831014548 | 21 | 313 | 6.4 | 16.1 | 0.00 | 0.30 | 0.05 | 50 | 1006.1 |
| 20260831014048 | 21 | 325 | 8.0 | 19.3 | 0.00 | 0.30 | 0.05 | 51 | 1006.1 |
| 20260831013546 | 22 | 305 | 11.3 | 17.7 | 0.00 | 0.30 | 0.05 | 51 | 1006.1 |
| 20260831013044 | 22 | 336 | 11.3 | 19.3 | 0.00 | 0.30 | 0.05 | 52 | 1006.1 |
| 20260831012543 | 22 | 321 | 11.3 | 19.3 | 0.00 | 0.30 | 0.05 | 52 | 1006.1 |
| 20260831012042 | 22 | 345 | 11.3 | 19.3 | 0.00 | 0.30 | 0.05 | 52 | 1006.2 |
| 20260831011544 | 23 | 6 | 9.7 | 20.9 | 0.00 | 0.30 | 0.05 | 52 | 1006.2 |
| 20260831011038 | 23 | 345 | 11.3 | 20.9 | 0.00 | 0.30 | 0.05 | 52 | 1006.2 |
| 20260831010538 | 23 | 355 | 12.9 | 20.9 | 0.00 | 0.30 | 0.05 | 52 | 1006.2 |
| 20260831010036 | 23 | 317 | 12.9 | 22.5 | 0.00 | 0.30 | 0.05 | 52 | 1006.3 |
| 20260831005534 | 23 | 334 | 16.1 | 24.1 | 0.00 | 0.58 | 0.05 | 52 | 1006.3 |
| 20260831005032 | 23 | 328 | 16.1 | 24.1 | 0.00 | 0.58 | 0.05 | 52 | 1006.2 |
| 20260831004531 | 23 | 355 | 17.7 | 24.1 | 0.00 | 0.58 | 0.05 | 52 | 1006.2 |
| 20260831004029 | 23 | 350 | 14.5 | 22.5 | 0.00 | 0.58 | 0.05 | 51 | 1006.2 |
| 20260831003529 | 23 | 328 | 11.3 | 24.1 | 0.00 | 0.58 | 0.05 | 52 | 1006.1 |
| 20260831003033 | 23 | 355 | 16.1 | 25.7 | 0.00 | 0.58 | 0.05 | 52 | 1006.1 |
| 20260831002524 | 24 | 335 | 14.5 | 25.7 | 0.00 | 0.58 | 0.05 | 52 | 1006.0 |
| 20260831002022 | 24 | 311 | 17.7 | 25.7 | 0.00 | 0.58 | 0.05 | 51 | 1006.1 |
| 20260831001521 | 24 | 336 | 14.5 | 24.1 | 0.00 | 0.58 | 0.05 | 52 | 1006.1 |
| 20260831001025 | 24 | 359 | 17.7 | 24.1 | 0.00 | 0.58 | 0.05 | 51 | 1006.1 |
| 20260831000518 | 25 | 328 | 16.1 | 22.5 | 0.00 | 0.58 | 0.05 | 51 | 1006.2 |
| 20260831000020 | 25 | 319 | 14.5 | 22.5 | 0.00 | 0.58 | 0.05 | 50 | 1006.1 |
| 20260830235516 | 25 | 345 | 12.9 | 22.5 | 0.00 | 0.58 | 0.05 | 49 | 1006.2 |
| 20260830235014 | 25 | 350 | 16.1 | 22.5 | 0.00 | 0.58 | 0.05 | 49 | 1006.3 |
| 20260830234531 | 25 | 302 | 14.5 | 27.4 | 0.00 | 0.58 | 0.05 | 50 | 1006.3 |
| 20260830234010 | 25 | 313 | 17.7 | 27.4 | 0.00 | 0.58 | 0.05 | 49 | 1006.3 |
| 20260830233509 | 25 | 321 | 9.7 | 22.5 | 0.00 | 0.58 | 0.05 | 50 | 1006.3 |
| 20260830233008 | 25 | 350 | 16.1 | 24.1 | 0.00 | 0.58 | 0.05 | 51 | 1006.3 |
| 20260830232506 | 25 | 337 | 17.7 | 24.1 | 0.00 | 0.58 | 0.05 | 51 | 1006.3 |
| 20260830232005 | 24 | 14 | 11.3 | 24.1 | 0.00 | 0.58 | 0.05 | 52 | 1006.3 |
| 20260830231507 | 23 | 13 | 16.1 | 24.1 | 0.00 | 0.58 | 0.05 | 52 | 1006.1 |
| 20260830231002 | 23 | 355 | 16.1 | 24.1 | 0.00 | 0.58 | 0.05 | 52 | 1006.2 |
| 20260830230600 | 24 | 14 | 14.5 | 24.1 | 0.00 | 0.58 | 0.05 | 51 | 1006.3 |
| 20260830230059 | 25 | 350 | 12.9 | 20.9 | 0.00 | 0.58 | 0.05 | 51 | 1006.4 |
| 20260830225558 | 25 | 315 | 14.5 | 27.4 | 0.00 | 0.61 | 0.05 | 51 | 1006.4 |
| 20260830225056 | 25 | 308 | 16.1 | 27.4 | 0.00 | 0.61 | 0.05 | 50 | 1006.5 |
| 20260830224555 | 25 | 322 | 17.7 | 27.4 | 0.00 | 0.61 | 0.05 | 51 | 1006.4 |
| 20260830224053 | 25 | 338 | 14.5 | 24.1 | 0.00 | 0.61 | 0.05 | 50 | 1006.4 |
| 20260830223552 | 25 | 355 | 11.3 | 24.1 | 0.00 | 0.61 | 0.05 | 51 | 1006.5 |
| 20260830223050 | 25 | 340 | 14.5 | 20.9 | 0.00 | 0.61 | 0.05 | 51 | 1006.5 |
| 20260830222551 | 25 | 318 | 11.3 | 19.3 | 0.00 | 0.61 | 0.05 | 51 | 1006.6 |
| 20260830222047 | 25 | 330 | 11.3 | 19.3 | 0.00 | 0.61 | 0.05 | 51 | 1006.7 |
| 20260830221548 | 25 | 307 | 11.3 | 22.5 | 0.00 | 0.61 | 0.05 | 50 | 1006.8 |
| 20260830221044 | 25 | 327 | 12.9 | 22.5 | 0.00 | 0.61 | 0.05 | 51 | 1006.8 |
| 20260830220543 | 25 | 285 | 9.7 | 22.5 | 0.00 | 0.61 | 0.05 | 50 | 1006.8 |
| 20260830220047 | 25 | 279 | 14.5 | 22.5 | 0.00 | 0.61 | 0.05 | 50 | 1006.7 |
| 20260830215540 | 25 | 318 | 12.9 | 27.4 | 0.00 | 0.66 | 0.05 | 50 | 1006.7 |
| 20260830215041 | 25 | 317 | 17.7 | 27.4 | 0.00 | 0.66 | 0.05 | 51 | 1006.8 |